Informationen zur Loipe auf der Atzenberger Höhe
 
19.01.2019Höhe
ü. NN
ZeitTemperatur (°C)Nieder-
schlag
Luft-
feuchte
Luft-
druck
Wind
StationaktuellMinimumMaximumaktuellMaximum
Aldingen654 m21:51-5,9-10,0 (05:59)-2,0 (14:43)0,0 l/m²92%1016,57,4 km/h (2 Bft) SO14,8 km/h (3 Bft) S-SO (13:07)
Allmannsweiler625 m21:50-8,9-8,9 (21:50)-2,8 (15:25)0,0 l/m²93%1015,50,0 km/h (0 Bft) SO12,9 km/h (3 Bft) SW (13:50)
Allmendingen541 m21:35-8,2-10,2 (07:25)-3,4 (00:35)0,0 l/m²88%1015,90,0 km/h (0 Bft) S-SW16,1 km/h (3 Bft) SO (09:05)
Altshausen574 m21:50-8,2-8,2 (21:38)-2,3 (14:44)0,0 l/m²88%1011,51,6 km/h (1 Bft) W-SW11,3 km/h (2 Bft) N-NO (00:05)
Amstetten-Reutti663 m21:50-6,9-8,0 (06:10)-4,1 (14:40)0,0 l/m²94%1015,40,0 km/h (0 Bft) SO27,4 km/h (4 Bft) O (09:45)
Amtzell-Grenis677 m21:50-8,0-8,1 (21:50)-2,1 (14:15)0,0 l/m²88%1016,93,2 km/h (1 Bft) NO16,1 km/h (3 Bft) O-SO (00:00)
Aulendorf570 m21:50-7,8-7,8 (21:48)-2,5 (15:13)0,0 l/m²86%1015,00,0 km/h (0 Bft) S-SW14,5 km/h (3 Bft) NO (00:34)
Bad Krozingen233 m21:50-3,3-5,7 (08:50)0,4 (15:35)0,0 l/m²92%1015,41,6 km/h (1 Bft) O6,6 km/h (2 Bft) W-NW (13:25)
Bad Saulgau595 m21:50-7,7-7,7 (21:50)-1,9 (15:15)0,0 l/m²90%1014,40,0 km/h (0 Bft) W-NW12,9 km/h (3 Bft) W (07:00)
Bad Saulgau-Lampertsweiler627 m21:50-7,2-7,5 (21:00)-2,8 (00:00)0,0 l/m²89%1017,90,0 km/h (0 Bft) O-SO14,5 km/h (3 Bft) S-SO (10:50)
Bad Schussenried572 m21:50-6,8-7,1 (20:40)-2,6 (15:10)0,0 l/m²91%1013,90,0 km/h (0 Bft) SW11,3 km/h (2 Bft) O-NO (00:15)
Bergatreute615 m21:50-10,0-10,2 (20:45)-2,0 (14:20)0,0 l/m²94%1015,70,0 km/h (0 Bft) N12,9 km/h (3 Bft) O-NO (00:00)
Biberach (Riss), Boehringer533 m21:40-8,0-8,1 (21:40)-2,9 (00:00)0,0 l/m²94%1013,80,0 km/h (0 Bft) N16,6 km/h (3 Bft) S (13:50)
Biberach (Riss), Realschule553 m21:50-8,9-8,9 (21:45)-3,2 (00:00)0,0 l/m²92%1016,70,0 km/h (0 Bft) O-SO16,1 km/h (3 Bft) W-SW (12:55)
Bodnegg-Rotheidlen677 m21:50-7,8-8,1 (06:20)-2,7 (14:25)0,0 l/m²93%1015,80,0 km/h (0 Bft) W-NW14,5 km/h (3 Bft) O (00:00)
Burgrieden523 m21:50-6,9-6,9 (21:50)-3,2 (00:00)0,0 l/m²86%1015,60,0 km/h (0 Bft) S12,9 km/h (3 Bft) S (17:35)
Burgrieden-Hochstetten510 m21:50-7,4-7,4 (21:50)-2,8 (22:00)0,0 l/m²91%1015,74,8 km/h (1 Bft) SO14,5 km/h (3 Bft) O (22:10)
Donauwörth411 m21:50-6,2-6,2 (21:50)-0,8 (15:05)0,0 l/m²91%1015,80,0 km/h (0 Bft) O-SO22,5 km/h (4 Bft) O (10:45)
Ebersbach579 m21:50-8,6-8,6 (21:50)-2,6 (00:00)0,0 l/m²93%1016,40,0 km/h (0 Bft) O17,7 km/h (3 Bft) O-NO (00:00)
Ebersbach-Boos605 m21:50-8,6-8,6 (21:45)-2,5 (15:15)0,0 l/m²93%1016,30,0 km/h (0 Bft) O-SO22,5 km/h (4 Bft) O (00:05)
Ebersbach-Menzenweiler661 m21:50-6,8-6,8 (21:50)-3,1 (15:05)0,0 l/m²95%1016,18,0 km/h (2 Bft) O-NO29,0 km/h (5 Bft) O-NO (00:00)
Ehingen535 m21:50-8,3-8,4 (21:25)-3,7 (00:50)0,0 l/m²86%1016,00,0 km/h (0 Bft) NW12,8 km/h (3 Bft) NW (08:50)
Erlenmoos645 m21:50-8,8-8,8 (21:40)-2,6 (15:15)0,0 l/m²85%1015,70,0 km/h (0 Bft) N-NO0,0 km/h (0 Bft) W (00:00)
Ertingen569 m21:50-7,2-7,2 (21:50)-2,8 (15:20)0,0 l/m²90%1015,40,0 km/h (0 Bft) O-SO12,9 km/h (3 Bft) N-NO (07:10)
Friedrichshafen405 m21:50-4,8-5,0 (08:15)2,1 (15:25)0,0 l/m²88%1015,76,4 km/h (2 Bft) N-NO12,9 km/h (3 Bft) N-NO (22:40)
Günzburg443 m21:45-6,8-7,1 (21:20)-2,2 (15:09)0,0 l/m²89%1013,10,0 km/h (0 Bft) W14,5 km/h (3 Bft) O-SO (09:25)
Höchsten802 m21:50-5,9-7,7 (08:35)-4,1 (14:50)0,0 l/m²93%1013,60,0 km/h (0 Bft) SO38,6 km/h (5 Bft) N-NO (00:35)
Horgenzell618 m21:50-5,1-5,2 (03:50)-3,7 (00:00)0,0 l/m²90%1013,58,0 km/h (2 Bft) O-NO19,3 km/h (3 Bft) NO (00:25)
Hoßkirch632 m21:50-8,6-8,6 (21:30)-2,7 (14:25)0,0 l/m²92%1014,80,0 km/h (0 Bft) SW20,9 km/h (4 Bft) O-NO (00:35)
Isny, Am Dreifingerbach695 m21:50-9,6-11,4 (06:00)-2,3 (15:05)0,0 l/m²90%1015,74,8 km/h (1 Bft) O-SO8,0 km/h (2 Bft) O (05:25)
Isny, Weidachweg706 m21:50-10,7-11,7 (08:20)-1,3 (14:10)0,0 l/m²88%1017,20,0 km/h (0 Bft) SO11,3 km/h (2 Bft) SW (02:20)
Kappel-Grafenhausen163 m21:45-2,8-4,9 (08:20)2,4 (14:45)0,0 l/m²90%1013,20,0 km/h (0 Bft) N6,4 km/h (2 Bft) N-NO (10:25)
Kirchberg an der Iller584 m21:50-8,1-8,1 (21:40)-3,2 (22:10)0,0 l/m²88%1005,20,0 km/h (0 Bft) O-SO8,0 km/h (2 Bft) S-SW (01:55)
Kißlegg-Staibshof709 m21:50-7,1-7,2 (08:10)-1,4 (15:20)0,0 l/m²95%1015,50,0 km/h (0 Bft) N-NO11,3 km/h (2 Bft) O-NO (00:00)
Kressbronn398 m21:52-4,6-5,1 (07:56)-0,4 (14:52)0,0 l/m²83%1014,40,0 km/h (0 Bft) NO12,9 km/h (3 Bft) NO (01:08)
Kreuzthal-Steinberg-Alpe930 m21:40-5,8-10,0 (08:00)2,6 (12:50)0,0 l/m²100%1015,00,7 km/h (0 Bft) O13,7 km/h (3 Bft) W-NW (00:00)
Kreuzthal-Steinberggipfel1040 m21:40-3,7-8,9 (07:50)0,1 (14:10)-84%1015,010,1 km/h (2 Bft) SW22,7 km/h (4 Bft) O-SO (00:40)
Kristberg im Montafon (AT)1425 m21:50-8,1-9,5 (05:20)3,1 (12:15)0,0 l/m²71%1015,24,8 km/h (1 Bft) N12,9 km/h (3 Bft) N (09:00)
Laupheim500 m21:50-7,0-7,0 (21:35)-3,2 (00:00)0,0 l/m²89%1015,00,0 km/h (0 Bft) SW14,5 km/h (3 Bft) S-SW (12:20)
Lindau-Insel420 m21:50-4,7-6,2 (08:30)1,4 (14:45)0,0 l/m²84%1014,88,0 km/h (2 Bft) N-NO11,3 km/h (2 Bft) W (13:55)
Lindau-Stadt412 m21:50-5,2-6,8 (07:45)-0,4 (11:50)0,0 l/m²85%1015,24,8 km/h (1 Bft) N-NO9,7 km/h (2 Bft) N (01:10)
Maierhöfen im Allgäu733 m21:55-13,8-15,2 (08:10)1,6 (13:30)0,0 l/m²88%1016,80,0 km/h (0 Bft) SW4,8 km/h (1 Bft) O (01:45)
Maselheim-Sulmingen548 m21:50-8,7-8,8 (21:10)-3,7 (22:00)0,0 l/m²92%1017,03,2 km/h (1 Bft) O-SO12,9 km/h (3 Bft) O (22:00)
Mietingen-Baltringen528 m21:50-7,9-7,9 (21:45)-3,3 (00:00)0,0 l/m²87%1017,50,0 km/h (0 Bft) N-NO12,9 km/h (3 Bft) SO (08:20)
Mindelheim-Apfeltrach620 m21:51-13,0-13,0 (21:51)-2,3 (14:59)0,2 l/m²87%1017,01,6 km/h (1 Bft) NW6,4 km/h (2 Bft) NO (06:59)
Neresheim552 m21:00-4,7-5,6 (09:22)-3,8 (15:33)0,0 l/m²91%1012,20,0 km/h (0 Bft) S15,1 km/h (3 Bft) O-SO (09:22)
Neukirch570 m21:50-7,0-7,4 (07:10)-0,8 (13:00)0,0 l/m²92%1015,94,8 km/h (1 Bft) NO9,7 km/h (2 Bft) NO (23:30)
Ochsenhausen, Birkenstraße613 m21:50-10,5-10,5 (21:50)-3,5 (14:15)0,0 l/m²84%1016,24,8 km/h (1 Bft) O11,3 km/h (2 Bft) O-NO (08:05)
Ochsenhausen, Unt. Wiesen575 m21:50-10,2-10,2 (21:50)-3,7 (00:00)0,0 l/m²89%1017,39,7 km/h (2 Bft) S14,5 km/h (3 Bft) S-SO (08:05)
Ostrach619 m21:50-8,6-8,6 (21:50)-1,3 (14:40)0,0 l/m²92%1014,10,0 km/h (0 Bft) S-SO17,7 km/h (3 Bft) N-NO (23:00)
Ravensburg428 m21:50-5,8-5,8 (21:45)-0,4 (15:10)0,0 l/m²89%1014,98,0 km/h (2 Bft) N-NO16,1 km/h (3 Bft) N-NO (01:45)
Ravensburg-Wernsreute511 m21:50-6,9-7,0 (21:20)-1,7 (15:25)0,0 l/m²91%1017,88,0 km/h (2 Bft) N24,1 km/h (4 Bft) N-NO (22:00)
Reichenbach an der Fils343 m21:50-5,4-5,4 (21:50)-1,8 (11:20)0,0 l/m²84%1017,41,6 km/h (1 Bft) O-SO24,1 km/h (4 Bft) O (20:10)
Reinstetten559 m21:50-10,3-10,4 (21:45)-3,2 (00:00)0,0 l/m²91%1016,24,8 km/h (1 Bft) S17,7 km/h (3 Bft) SO (09:35)
Riedlingen530 m21:50-7,1-7,1 (21:50)-3,2 (15:25)0,0 l/m²91%1015,60,0 km/h (0 Bft) O-NO12,9 km/h (3 Bft) O-NO (00:45)
Schemmerhofen520 m21:50-8,3-8,3 (21:40)-3,0 (00:00)0,0 l/m²91%1015,31,6 km/h (1 Bft) SW12,9 km/h (3 Bft) N-NO (04:00)
Silbertal im Montafon (AT)884 m21:50-7,8-9,2 (06:40)-4,6 (14:50)0,0 l/m²91%1017,50,0 km/h (0 Bft) SO3,2 km/h (1 Bft) S-SO (02:00)
Tettnang466 m21:50-5,0-5,9 (07:35)-0,5 (14:55)0,0 l/m²85%1014,18,0 km/h (2 Bft) O-NO14,5 km/h (3 Bft) O (01:05)
Tuttlingen662 m21:45-7,6-9,6 (05:10)-3,9 (14:35)0,0 l/m²89%1015,73,2 km/h (1 Bft) O-SO11,3 km/h (2 Bft) O-SO (14:40)
Ummendorf547 m21:50-9,5-9,5 (21:50)-3,4 (01:30)0,0 l/m²89%1016,78,0 km/h (2 Bft) S-SO16,1 km/h (3 Bft) SW (13:05)
Ummendorf-Fischbach558 m21:50-10,4-10,4 (21:45)-3,9 (01:25)0,0 l/m²90%1017,10,0 km/h (0 Bft) S-SO14,5 km/h (3 Bft) O-NO (01:35)
Waldburg707 m21:50-7,5-7,5 (21:50)-3,2 (13:05)0,0 l/m²92%1015,20,0 km/h (0 Bft) N14,5 km/h (3 Bft) N (00:15)
Waltenhofen im Allgäu720 m21:50-12,8-13,7 (07:35)-0,8 (13:35)0,2 l/m²89%1016,30,0 km/h (0 Bft) S-SW4,8 km/h (1 Bft) S-SW (11:55)
Weingarten500 m21:50-7,7-7,7 (21:50)-1,5 (14:25)0,0 l/m²88%1015,53,2 km/h (1 Bft) O-NO8,0 km/h (2 Bft) O-NO (00:55)
Winterlingen785 m21:30-7,0-10,0 (07:00)-3,9 (16:00)0,0 l/m²96%1013,83,6 km/h (1 Bft) S-SW7,2 km/h (2 Bft) S-SO (10:40)

Werbung
niederschlagsdatenbank | info | login - erfassung

Sollten Sie Interesse haben, an der Niederschlagsdatenbank teilzunehmen, finden Sie > hier < weitere Informationen.

Niederschlagsdaten der Station Aulendorf - Steinenbacher Weg 33

Rolf Eisemann

Niederschlagsstation aufgenommen ins Stationsnetz der Wetterwarte Süd am 26.08.2010
Monat: .
Anmerkung:0,0 = nicht messbarer Niederschlag
 -  = kein Niederschlag

Stationsdaten

Höhe

576 m

Lage

Auf Google Maps ansehen

Beschreibung

Die Station liegt im Süden von Aulendorf an einer leichten Hangkante zum Schussenbecken und ca. 150 m vom Stadtrand entfernt. Von der Höhenlage her liegt sie fast genau auf der Höhe, die für Aulendorf in topografischen Karten allgemein als Höhe angegeben wird (574,9 m). Dabei erstreckt sich das Stadtgebiet in einer Höhenentwicklung von 540 - 676 m über NN. Den höchsten Punkt bildet nicht, wie häufig vermutet, der Standort der Hohkreuzkapelle (667,7 m), sondern ein Punkt im Wald zwischen der Hohkreuzkapelle und Ebisweiler. Gemessen wird mit einer "Profigarden 257 041" von HEIPEI aus Oldenburg
< Dezember 2018

Januar 2019

TagNiederschlagBemerkung
01.3,8
Schneeregen Schnee
02.2,0
Schnee
03.1,0
Schnee Graupel
Schneehöhe: 1 cm
04.3,6
Ablesung um 10 Uhr
Schnee Graupel Schneegriesel
Schneehöhe: 2 cm
05.15,2
Schnee Graupel
Schneehöhe: 6 cm
06.8,0
Nieselregen Schneeregen Schnee
Schneehöhe: 14 cm
07.2,2
Nieselregen Schneeregen
Schneehöhe: 14 cm
08.2,9
Nieselregen Schneeregen Schnee Schneegriesel
Schneehöhe: 11 cm
09.8,5
gemessene Niederschlagsmenge vermutlich ungenau, da der Messbecher eine übervolle "Krone" hatte
Schnee Schneegriesel
Schneehöhe: 11 cm
10.6,0
gemessene Niederschlagsmenge vermutlich ungenau, da der Messbecher wieder eine übervolle "Krone" hatte
Schnee Schneegriesel
Schneehöhe: 21 cm
11.7,5
...wieder "gekrönter" Messbecher...
Schnee Schneegriesel
Schneehöhe: 24 cm
12.8,0
Regen Schneeregen Schnee
Schneehöhe: 26 cm
13.12,0
Ablesung um 6:50 Uhr
Regen Schneeregen
Schneehöhe: 20 cm
14.3,2
Schneeregen Schnee
Schneehöhe: 10 cm
15.-
Schneehöhe: 9 cm
16.-
Schneehöhe: 7 cm
17.0,7
Schneeregen Schnee
Schneehöhe: 3 cm
18.-
Schneehöhe: Reste
19.-
Schneehöhe: Reste
20.-
21.-
22.-
23.-
24.-
25.-
26.-
27.-
28.-
29.-
30.-
31.-
Gesamt:84,6 
Die Spalten "Tag" und "Niederschlag" lassen sich durch Klicken auf den Spaltenkopf sortieren.
Die Angaben sind in l/m².

< Dezember 2018


Monats- und Jahresniederschlag


Wetterbeobachtungen Legende:

  • Regen
  • Nieselregen
  • Schneeregen
  • Schnee
  • Graupel
  • Eiskörner
  • Hagel
  • Bodennebel
  • Gewitter
  • Nebelnässe
  • Schneegriesel

Grafische Darstellung der Niederschläge der Station Aulendorf Januar 2019

 
wetterstationen
wetterstationen
- derzeit 73 Stationen
niederschlagsdatenbank
wetterstationen
- kartographische Darstellung
niederschlagsdatenbank
niederschlagsstationen
- derzeit 103 Stationen
niederschlagsdatenbank
niederschlagsstationen
- kartographische Darstellung
 
 
Fr. 7.30 Uhr - Sa. 7.30 Uhr (MEZ)
1.Waldburg2,0 l/m²
2.Ulm1,5 l/m²
3.Amstetten-Reutti0,8 l/m²
4.Langenau0,5 l/m²
5.Dornstadt-Tomerdingen0,5 l/m²
6.Eberhardzell
Lilienweg
0,1 l/m²
7.Eislingen0,1 l/m²
8.Langenenslingen0,1 l/m²
9.Kreuzthal-Steinberg-Alpe0,0 l/m²
10.Ehingen
Rosenstraße
0,0 l/m²
11.Füramoos0,0 l/m²
12.Ehingen
Schillerstraße
0,0 l/m²
13.Ravensburg-Schmalegg0,0 l/m²
 
Sa. 19.01.2019 - 7.30 Uhr (MEZ)
1.Kreuzthal-Steinberg-Alpe108 cm
2.Isny54 cm
3.Leutkirch-Adrazhofen45 cm
4.Waldburg40 cm
5.Bad Wurzach-Seibranz39 cm
6.Münsingen-Rietheim34 cm
7.Schelklingen-Gundershofen24 cm
8.Eberhardzell
Lilienweg
19 cm
9.Amstetten-Reutti18 cm
10.Ochsenhausen15 cm
11.Horgenzell-Ringgenweiler9 cm
12.Tuttlingen-Möhringen
Eßlinger Straße
8 cm
13.Ravensburg-Schmalegg7 cm
14.Langenenslingen2 cm
15.Ehingen
Schillerstraße
1 cm
16.Langenauca 1cm
17.Ulmalles wieder weg
18.Moosburgstark angezuckert
19.AulendorfReste
20.WolpertswendeReste
21.Öpfingen"Reste"
22.Weingarten
Marienstraße
Reste
23.BalzheimReste
24.Riedhausenr
25.Pfaffenhofen-KadeltshofenReste
26.Bad Saulgau
Walserweg
Reste
27.Weingarten
Laurastraße
Reste
 
  treffpunkt & service
--- Anzeigen --------------------------------
zugriffe:
insgesamt: 40.645.966
aktueller monat: 319.047
heute: 11.959
momentan online: 71
 
 
monatshöchstwert: 653.625
vorheriger monat: 400.931
gestern: 9.684
tageshöchstwert: 45.129
 
wetterwarte süd
 
konradstraße 3
info@wetterwarte-sued.com
roland roth
 
88427 bad schussenried